Weather History for KBFI - January, 2013

Change the Weather History Date:

Monday, January 28, 2013

  Actual Average Record
Temperature  
Mean Temperature 42 °F -  
Max Temperature 45 °F 45 °F 60 °F (1998)
Min Temperature 39 °F 35 °F 7 °F (1950)
Degree Days  
Heating Degree Days 23    
Moisture  
Dew Point 38 °F    
Average Humidity 84    
Maximum Humidity 89    
Minimum Humidity 76    
Precipitation  
Precipitation 0.21 in - - ()
Sea Level Pressure  
Sea Level Pressure 30.05 in    
Wind  
Wind Speed 6 mph (SE)    
Max Wind Speed 9 mph    
Max Gust Speed -    
Visibility 10 miles    
Events Rain    
Averages and records for this station are not official NWS values.
T = Trace of Precipitation, MM = Missing Value Source: NWS Daily Summary

Daily Weather History Graph

Daily Weather History Graph

Search for Another Location

Airport or City:

Trip Planner

Search our weather history database for the weather conditions in past years. The results will help you decide how hot, cold, wet, or windy it might be!

Date:

Astronomy

Jan. 28, 2013 Rise Set
Actual Time 7:40 AM PST 5:05 PM PST
Civil Twilight 7:06 AM PST 5:38 PM PST
Nautical Twilight 6:29 AM PST 6:15 PM PST
Astronomical Twilight 5:53 AM PST 6:51 PM PST
Moon 7:17 PM PST (1/28) 7:57 AM PST (1/28)
Length of Visible Light 10h 31m
Length of Day
9h 24m
Full, 97% of the Moon is Illuminated
Jan 28
Full
Feb 3
Last Quarter
Feb 9
New
Feb 17
First Quarter
Feb 25
Full

Hourly Weather History & Observations

Time (PST) Temp. Windchill Dew Point Humidity Pressure Visibility Wind Dir Wind Speed Gust Speed Precip Events Conditions
12:53 AM 41.0 °F 37.1 °F 37.9 °F 89% 30.01 in 9.0 mi SE 5.8 mph - N/A   Overcast
1:53 AM 41.0 °F 38.0 °F 37.9 °F 89% 30.03 in 9.0 mi ESE 4.6 mph - N/A   Overcast
2:53 AM 41.0 °F 38.0 °F 37.0 °F 86% 30.04 in 10.0 mi SE 4.6 mph - N/A   Overcast
3:37 AM 41.0 °F 35.8 °F 37.4 °F 87% 30.04 in 10.0 mi SE 8.1 mph - N/A   Scattered Clouds
3:53 AM 39.9 °F 33.9 °F 36.0 °F 86% 30.04 in 10.0 mi SE 9.2 mph - N/A   Partly Cloudy
4:53 AM 39.9 °F 34.5 °F 36.0 °F 86% 30.05 in 10.0 mi SE 8.1 mph - N/A   Clear
5:53 AM 39.9 °F 35.8 °F 36.0 °F 86% 30.05 in 10.0 mi SE 5.8 mph - N/A   Partly Cloudy
6:53 AM 39.9 °F 35.1 °F 37.0 °F 89% 30.06 in 10.0 mi SE 6.9 mph - N/A   Overcast
7:53 AM 41.0 °F 38.0 °F 37.0 °F 86% 30.07 in 10.0 mi ESE 4.6 mph - N/A   Overcast
9:53 AM 42.1 °F 39.2 °F 37.0 °F 82% 30.07 in 10.0 mi SSE 4.6 mph - N/A   Overcast
10:53 AM 43.0 °F - 37.9 °F 82% 30.07 in 10.0 mi Calm Calm - N/A   Overcast
11:53 AM 43.0 °F 40.3 °F 36.0 °F 76% 30.07 in 10.0 mi SSW 4.6 mph - N/A   Overcast
12:53 PM 44.1 °F 42.5 °F 37.0 °F 76% 30.06 in 10.0 mi South 3.5 mph - 0.01 in Rain Light Rain
1:37 PM 44.6 °F 42.2 °F 37.4 °F 76% 30.05 in 10.0 mi SSE 4.6 mph - 0.01 in Rain Light Rain
1:53 PM 44.1 °F 41.5 °F 39.0 °F 82% 30.04 in 10.0 mi SE 4.6 mph - 0.01 in Rain Light Rain
2:53 PM 45.0 °F 42.6 °F 39.0 °F 80% 30.02 in 10.0 mi South 4.6 mph - 0.03 in Rain Light Rain
3:53 PM 45.0 °F 42.6 °F 39.9 °F 82% 30.03 in 8.0 mi SSE 4.6 mph - 0.02 in Rain Light Rain
4:53 PM 45.0 °F 43.5 °F 39.9 °F 82% 30.03 in 10.0 mi Variable 3.5 mph - 0.03 in Rain Light Rain
5:53 PM 44.1 °F 41.5 °F 39.0 °F 82% 30.04 in 10.0 mi SE 4.6 mph - 0.02 in Rain Light Rain
6:53 PM 44.1 °F 40.1 °F 39.9 °F 85% 30.04 in 10.0 mi SSE 6.9 mph - 0.03 in Rain Light Rain
7:53 PM 44.1 °F 39.5 °F 39.0 °F 82% 30.05 in 10.0 mi SE 8.1 mph - 0.00 in Rain Light Rain
8:53 PM 44.1 °F 40.1 °F 39.0 °F 82% 30.06 in 10.0 mi SSE 6.9 mph - 0.02 in Rain Light Rain
9:53 PM 44.1 °F 40.8 °F 39.0 °F 82% 30.06 in 10.0 mi SE 5.8 mph - 0.01 in Rain Light Rain
10:53 PM 43.0 °F 38.8 °F 39.9 °F 89% 30.08 in 10.0 mi SE 6.9 mph - 0.01 in Rain Light Rain
11:53 PM 43.0 °F 37.7 °F 39.9 °F 89% 30.10 in 10.0 mi SE 9.2 mph - 0.02 in Rain Light Rain